map of NDJ home
Great Circle Mapper logo
NDJ - Airport
Location
City:  N'Djamena, Chari-Baguirmi, Chad
ICAO:FTTJ
IATA:NDJ

Details
Type:Airport (Aerodrome, Airfield)
Use:Public/Civil, Military, International (customs port of entry)
Latitude:1208'01"N (12.133689)
Longitude:1502'02"E (15.034019)
Datum:WGS 1984
Elevation:968 ft (295 m)
Variation:1.02E (WMM2015 magnetic declination)
0.10 annual change
Runways:1
Longest:9186 × 148 ft (2800 × 45 m), paved

Time
Time Zone:UTC+1
Local Time:

Weather
METAR:FTTJ 050000Z VRB03KT 8000 NSC 30/13 Q1007 NOSIG
TAF:FTTJ 042300Z 0500/0606 VRB02KT 6000 NSC
BECMG 0504/0506 2000 DU
BECMG 0508/0510 06012KT 4000

Related Locations
Nearby:
Farthest:MHX: 12151 mi / 19556 km
Manihiki Island (Manuhiki, Tapuahua, Humphrey Island), CK

Find:

   beyond  
but within

Other Information
Maps:
NOTAMs:
Links:
Sources:

  
flag of Chad   

Sectional Chart

Flight Planning
at skyvector.com

Satellite Image

Google Maps Satellite view

 

Copyright © 2004-2016 Karl L. Swartz. All rights reserved.
The Great Circle Mapper name and logo are trademarks of the Great Circle Mapper.
All other trademarks mentioned herein belong to their respective owners.
Please see credits for attibutions and further copyright information.

  Follow gcmap on Facebook Follow gcmap on Twitter Follow gcmap on Google+ GCmap on LinkedIn

hCard Microformat

Geo Microformat